星链-30450 (STARLINK-30450 )

导读

STARLINK-30450是美国SpaceX星链星座中的一颗卫星,于2023年9月24日发射升空。星链计划旨在构建全球卫星互联网星座,为全球用户提供低延迟、高速率的宽带网络服务,该卫星入轨后进一步扩充了星链星座的规模,助力全球覆盖目标的推进。

基本信息
目录编号:
57913
目录名称:
STARLINK-30450
国际标识:
2023-147A
轨道中心:
EARTH
卫星名称:
星链-30450
卫星全名:
星链-30450 (STARLINK-30450 )
卫星状态:
在轨 (已飞行1076 天)
发射日期:
2023-09-24 UTC
国别 :
美国 (US)
星等 :
--
轨道信息
数据来源 国际轨道数据
星历时间: 2026-09-04T03:37:17+0800
15小时前
查看轨道信息
半长轴: 6861.197km
偏心率: 0.0002118
轨道倾角: 43.006°
近地点辐角 268.735°
升交点赤经 38.960°
平近点角 91.326°
近地点: 481.606km
远地点: 484.514km
周期: 94.267分钟
每日圈数: 15.275764
详细信息
固有亮度:
5
最大亮度:
0.3
卫星平台:
Starlink v2.0 mini
覆盖范围:
全球
运营商:
太空探索技术公司
运营商所在国:
美国
制造商(研发单位):
太空探索技术公司
制造商所在国:
美国
使用方式:
暂无
卫星简介
星链(Starlink)计划是由太空探索技术公司(SpaceX)提出的一个巨型低轨卫星互联网星座项目,计划在2019年至2024年间在太空搭建由约1.2万颗卫星组成的“星链”网络,其中1584颗将部署在地球上空550千米处的近地轨道,并从2020年开始工作。该卫星仍在工作。
2D轨道图
3D轨道图
轨道高度分析图
轨道倾角分析图
轨道综合分析图
查看轨道综合分析图
交会数据列表
事件ID 空间交会对象 最接近时刻(TCA) 交会距离 交会风险概率(CRP) 交会风险指数(CRI) 操作
CDM_260827-205805-791306-696522
2026-08-27T
20:58:57+0000
2.061 km
极远距离
1.376408E-6 低风险 0.38
CDM_260905-112205-791306-387321
2026-09-05T
11:22:13+0000
2.859 km
极远距离
1.180293E-6 低风险 0.36